{"data":{"norad_id":58389,"epoch":"2026-09-20T00:29:26.708928Z","epoch_age_seconds":185123,"freshness":"STALE","line1":"1 58389U 23178R   26263.02044802  .00000996  00000+0  40622-4 0  9994","line2":"2 58389  53.1588 175.6417 0001417  62.6528 297.4619 15.34381898159685","mean_motion":15.34381898,"eccentricity":0.0001417,"inclination_deg":53.1588,"raan_deg":175.6417,"arg_perigee_deg":62.6528,"mean_anomaly_deg":297.4619,"bstar":4.0622e-5,"rev_number":15968,"period_min":93.848865258185,"perigee_km":461.78768900889,"apogee_km":463.72639838087,"semimajor_km":6840.8940436949,"source":"CELESTRAK","updated_at":"2026-09-21T09:00:33.867925Z"}}